Weather in Krasny Yar

Kazakhstan     53°19′35″N   69°15′26″E
temp.,
°C
wind,
m/s
gust,
m/s
humid.,
%
clouds,
%
prec.,
mm/h
press.,
hPa
HPBL,
m
23 april, fri
fri2323:00+4sse6124398 0.0 1041400
02:00+2sse612546 0.0 1042332
05:000s51160100 0.0 1042290
08:00+4s6844100 0.0 1042554
11:00+8sse5630100 0.0 10411108
14:00+9sse6625100 0.0 10391475
17:00+9sse5626100 0.0 10381438
20:00+6sse3639100 0.0 1038126
24 april, sat
sat2423:00+4se41047100 0.0 1037248
02:00+3sse51249100 0.0 1035349
05:00+3sse51249100 0.0 1034375
08:00+4sse61245100 0.0 1033468
11:00+6sse71039100 0.1 1031655
14:00+10sse7928100 0.0 10291391
17:00+10sse6928100 0.0 10271577
20:00+8sse61134100 0.0 1027506
25 april, sun
sun2523:00+6sse61356100 0.0 1025533
02:00+6sse71453100 0.0 1023485
05:00+5sse614507 0.0 1021369
08:00+8sse8154199 0.0 1020612
11:00+11s8113289 0.0 1018998
14:00+15sw7938100 0.0 10172420
17:00+13wsw695189 0.0 10181689
20:00+11wsw485632 0.1 1019260
26 april, mon
mon2623:00+9s466475 0.1 1019105
02:00+10ssw6137996 0.1 1018419
05:00+9wsw61283100 0.3 1018385
08:00+10w71058100 0.0 1020969
11:00+12w81036100 0.0 10201623
14:00+14w7928100 0.0 10211888
17:00+13w7926100 0.0 10211933
20:00+10wsw483671 0.0 1022250
27 april, tue
tue2723:00+9wsw3642100 0.0 1022163
02:00+8sw2246100 0.0 102224
05:00+8sse2254100 0.1 102148
08:00+8sse41064100 0.2 1020450
11:00+11sse61572100 1.2 1017489
14:00+17sse61244100 0.1 1012378
17:00+23ssw101727100 0.1 10071679
20:00+20ssw91931100 0.0 1006592